Theta_e
334 332 326 324 325 324 323 321 317 312 313 320 316 327 321 321 321 321 320 316 313 315 315 314 312 311 311 310 310 309 309 311 312 313 313 314 318 320
325 327 325 322 323 323 323 322 320 316 313 318 318 322 323 320 321 320 319 319 316 316 315 314 311 310 310 310 308 308 308 309 309 311 311 310 314 315
326 324 323 324 322 323 323 322 320 318 315 318 318 322 323 321 320 321 319 320 317 316 316 313 311 310 310 309 308 306 306 307 307 308 308 308 310 312
322 322 321 321 324 324 322 323 321 322 318 316 319 316 321 324 322 323 317 316 315 315 315 313 312 310 309 308 307 306 305 304 304 305 306 306 307 309
322 321 322 323 322 322 322 322 320 320 319 316 312 315 316 315 315 321 321 323 315 316 314 313 312 311 308 307 307 304 303 303 302 303 304 303 304 305
321 321 321 322 322 321 321 322 321 320 319 315 312 313 311 315 313 311 312 315 313 311 315 314 312 312 310 308 307 306 304 302 301 301 302 301 301 302
320 320 319 314 310 310 320 321 322 318 313 312 310 311 308 307 309 311 311 312 315 312 312 312 314 311 310 308 306 305 304 302 301 301 300 300 300 300
317 313 312 310 308 307 308 305 309 315 315 313 309 307 309 307 310 311 310 309 306 314 312 309 314 311 308 307 305 303 302 302 301 300 299 300 300 299
318 317 314 312 314 310 305 306 306 307 309 315 309 306 306 308 312 312 314 312 309 308 312 306 311 308 310 308 304 303 301 301 300 300 299 299 299 298
318 317 317 316 313 315 315 313 312 314 312 309 309 308 308 308 310 314 317 318 313 309 313 305 310 309 310 309 304 303 301 300 300 299 299 298 298 299
316 316 315 313 299 301 314 312 310 307 301 302 302 301 300 300 302 309 305 305 303 304 308 307 306 307 309 308 308 304 301 300 300 299 299 298 298 300
314 310 299 306 298 299 314 313 311 311 312 311 311 307 304 306 304 315 308 303 303 303 306 306 305 306 303 308 309 310 308 303 301 300 299 298 297 300
308 306 304 297 297 297 302 315 309 308 307 310 308 307 309 310 308 310 313 306 302 303 305 306 304 304 304 302 306 307 308 307 307 305 301 298 297 297
310 307 301 295 295 296 302 296 299 299 309 307 306 305 305 306 307 309 312 311 308 307 308 310 301 301 302 301 299 304 307 307 307 305 305 302 299 297
310 301 294 293 294 297 296 298 297 308 307 305 304 304 305 306 310 310 312 313 311 309 308 309 305 303 300 298 298 300 301 305 308 304 305 303 301 299
299 299 299 299 298 301 301 303 308 308 307 305 304 304 306 305 305 306 304 304 303 303 310 310 310 307 298 298 299 299 302 299 305 306 304 304 302 301
305 304 304 304 303 305 306 306 306 307 306 305 304 303 303 303 303 305 303 303 301 301 301 305 308 304 300 301 296 299 300 301 304 304 303 301 302 299
305 304 304 305 305 304 305 305 305 304 305 304 303 302 301 301 302 302 302 302 300 300 300 302 302 302 299 298 299 297 298 298 301 304 304 298 297 300
307 307 306 305 305 305 304 304 303 304 306 304 302 302 302 301 302 300 301 300 300 300 299 299 300 298 295 293 297 294 297 299 298 297 300 298 295 297
308 307 305 305 305 304 304 304 303 304 303 302 302 302 302 301 299 298 299 299 300 299 299 299 297 297 296 295 295 296 290 296 296 294 293 297 295 292
308 306 306 305 305 304 304 304 304 303 302 302 301 301 301 301 300 300 297 291 293 299 297 297 298 289 300 300 296 296 296 292 295 297 296 293 292 292
307 305 305 305 305 304 304 303 301 301 302 301 301 301 301 301 299 299 299 298 298 298 298 299 300 299 298 296 294 295 296 297 293 293 294 293 292 289
305 305 303 303 304 304 303 302 301 302 301 301 300 300 300 299 300 300 298 297 298 297 297 297 297 298 297 296 293 294 296 296 296 296 297 292 293 294
Wind_Speed
6 4 3 2 2 3 3 4 5 5 5 5 4 8 7 7 10 10 10 10 2 3 10 11 18 24 28 31 34 34 34 34 34 33 35 37 37 39
6 5 3 3 2 2 3 3 3 4 4 6 6 6 6 7 9 10 10 9 6 2 12 10 15 22 25 30 34 35 35 34 33 33 34 37 37 37
8 7 5 2 2 2 1 2 3 4 5 6 6 5 6 8 8 8 9 8 2 5 11 9 12 18 23 27 30 33 34 33 33 33 36 35 34 35
8 8 7 4 3 1 1 3 4 4 4 3 3 5 6 8 7 6 6 7 8 9 12 8 10 18 24 26 29 31 31 33 34 34 36 37 38 40
9 7 6 5 3 5 4 1 2 2 2 3 4 5 7 8 9 8 6 7 9 12 13 10 10 16 24 26 29 31 31 32 32 33 34 37 38 37
9 7 5 5 6 3 3 3 3 4 1 2 3 6 8 8 8 8 8 8 8 11 8 6 12 17 18 25 28 32 31 32 33 33 31 31 35 37
9 8 8 9 14 9 4 5 3 3 4 3 5 8 8 8 9 9 8 9 8 10 10 9 10 7 12 19 23 30 30 31 32 33 31 30 30 34
10 10 10 10 10 9 10 13 9 6 6 8 7 7 8 8 8 8 8 9 8 9 10 10 9 8 9 13 23 26 27 29 31 32 33 28 28 31
10 10 9 8 10 10 8 9 8 7 7 7 7 8 7 8 9 10 8 10 7 10 9 9 10 7 10 12 20 21 25 25 29 32 33 30 26 27
9 7 9 8 6 6 8 8 7 9 7 7 7 7 7 7 8 10 8 8 5 10 11 8 9 6 9 10 14 13 18 20 22 30 34 34 26 23
9 7 9 8 5 7 7 8 9 8 5 5 4 4 2 7 7 9 10 8 9 10 11 9 9 9 7 8 8 5 10 11 15 25 31 34 32 24
9 9 14 8 5 6 6 7 6 5 6 7 6 5 7 6 3 9 9 8 9 7 12 9 10 10 7 7 7 8 9 13 12 15 27 31 31 16
9 8 7 5 7 7 6 5 7 5 4 3 4 5 4 6 7 8 8 8 8 7 11 10 10 10 9 10 10 9 8 9 11 10 15 25 28 25
10 9 8 5 8 6 6 4 4 6 3 4 4 5 5 6 5 4 4 5 7 8 9 11 10 11 11 11 11 10 9 9 10 10 11 14 21 24
10 12 12 9 10 7 4 1 4 5 4 4 4 5 4 3 4 3 5 6 4 7 6 8 8 10 10 11 11 11 11 10 10 9 11 11 14 14
16 10 9 8 3 9 7 6 2 4 3 4 4 4 3 4 5 4 5 5 5 6 6 5 8 9 9 10 10 10 10 11 9 10 8 10 12 13
11 10 8 8 8 7 5 6 7 5 4 3 3 3 3 4 5 4 4 5 6 6 7 7 11 11 10 12 11 11 11 11 10 9 10 11 11 13
10 10 9 8 7 7 6 6 5 3 4 3 4 4 5 5 4 4 4 5 6 7 7 8 8 4 7 13 15 11 10 11 11 12 9 10 11 10
7 8 8 6 6 7 7 6 6 5 3 3 4 4 4 4 2 5 5 5 6 6 7 8 8 8 8 9 9 14 10 10 10 11 11 10 11 8
7 7 7 7 7 6 6 7 6 6 5 4 4 4 4 4 5 5 5 5 5 6 6 7 8 8 8 8 8 6 9 9 9 11 11 9 6 4
8 8 7 7 7 7 7 6 6 5 5 4 5 4 3 4 3 6 5 3 2 6 6 7 6 3 7 6 8 8 6 6 7 9 10 11 10 11
8 8 8 8 7 7 7 6 6 6 6 5 5 5 3 4 4 4 4 5 5 5 4 5 5 5 5 8 8 9 8 6 2 5 3 6 7 10
9 7 8 8 8 8 8 8 8 6 5 5 5 5 4 5 4 3 4 5 4 5 4 4 5 5 5 5 5 8 11 10 8 2 5 8 9 10
Wind_Direction
133 132 113 93 60 39 356 349 331 343 350 107 9 66 4 360 44 348 341 102 93 257 61 32 26 19 14 6 2 1 359 354 351 354 353 358 355 353
130 118 105 89 125 46 2 5 8 342 321 54 50 48 7 356 23 349 340 143 208 154 66 51 36 29 19 12 6 4 3 358 356 3 5 4 1 1
132 129 108 169 96 95 12 5 30 7 328 21 43 70 22 24 1 349 350 359 43 92 76 62 39 38 23 15 8 8 6 3 3 6 11 11 10 10
140 137 137 137 135 87 128 356 45 66 344 334 49 27 35 33 358 348 347 358 13 39 99 77 49 49 27 17 12 11 8 7 6 10 14 17 14 15
142 144 140 146 105 77 355 342 100 75 27 346 9 46 23 27 357 354 11 358 19 58 121 100 55 54 33 21 16 12 10 9 7 9 16 14 15 23
135 136 142 135 122 142 116 140 84 284 136 324 23 40 27 16 11 355 4 357 36 17 61 102 73 65 44 27 19 14 11 12 11 8 13 14 18 20
131 131 77 68 61 40 323 37 333 340 17 13 36 47 25 4 14 346 358 351 58 26 342 31 58 36 39 36 18 12 10 12 13 12 10 18 18 21
127 115 120 124 97 78 76 65 50 26 60 4 48 41 34 6 0 344 359 347 2 48 340 30 61 49 55 37 23 11 8 11 14 16 13 17 18 23
142 146 158 119 144 123 116 119 80 63 54 42 53 38 34 8 349 338 352 327 30 37 358 21 358 68 48 48 31 16 9 10 18 19 16 12 15 23
144 136 116 157 90 165 152 115 96 75 47 65 56 50 48 15 357 313 325 331 54 49 19 355 12 78 56 44 50 28 17 7 16 23 20 15 10 21
128 95 135 135 39 19 142 131 121 124 119 120 126 150 223 285 308 354 360 6 8 55 20 335 12 349 73 59 46 67 45 9 23 29 23 18 12 12
122 90 55 105 59 2 189 155 131 115 111 155 178 225 232 165 311 36 2 16 12 20 11 336 13 360 354 52 49 40 30 16 40 40 34 23 17 16
134 141 112 72 74 29 9 127 99 123 173 215 98 76 48 65 53 48 15 41 17 34 23 355 11 358 3 8 28 21 28 32 26 18 43 38 24 24
142 121 123 116 87 33 86 66 21 315 205 103 83 61 53 33 59 68 93 49 76 50 39 15 23 9 4 9 14 13 9 41 28 25 32 34 38 25
123 118 129 140 128 108 108 290 273 232 105 98 83 75 77 77 353 65 95 152 134 92 67 57 42 24 22 16 7 11 360 15 24 37 35 41 33 24
114 131 152 147 89 116 177 201 143 59 55 84 82 77 89 77 59 20 43 33 35 47 118 75 50 42 35 29 14 15 7 11 17 17 46 46 52 41
143 148 166 158 171 171 151 133 143 164 119 99 87 88 66 85 71 54 36 43 49 40 35 44 92 70 57 53 23 20 9 9 1 29 23 41 41 51
160 162 176 168 165 154 150 134 114 131 119 114 90 68 61 39 53 58 58 49 52 45 40 31 23 134 173 81 41 17 24 13 0 357 42 30 39 38
178 166 170 172 161 153 153 150 130 106 112 89 87 80 94 102 68 54 43 47 60 54 50 33 28 24 25 38 96 46 20 19 20 3 4 42 33 37
187 168 171 159 160 157 148 135 138 164 143 132 107 99 84 76 83 58 49 25 59 64 56 53 40 12 19 24 42 82 32 20 23 23 12 11 74 137
183 173 160 160 161 157 147 145 163 135 141 137 117 108 103 103 73 112 111 48 341 51 59 51 36 267 345 34 41 42 99 37 26 38 30 23 24 26
171 169 161 162 159 154 146 149 124 162 160 144 124 113 101 95 103 85 51 76 59 68 66 73 50 28 55 16 47 28 35 132 161 298 28 62 25 31
172 156 160 159 166 158 160 162 172 159 152 138 136 118 127 118 104 91 99 80 32 83 33 55 66 61 33 51 38 52 8 38 11 100 96 198 234 245